Hourly Data Report for August 30, 2021

LYNN LAKE
MANITOBA
Current Station Operator: NAVCAN

56°51'50.000" N
101°04'34.000" W
356.60 m
5061645
71078
YYL

Download Data

Hourly Data (August 2021)
Hourly Data Report for August 30, 2021
TIME
LST
Temp Definition
°C
Dew Point Definition
°C
Rel Hum Definition
%
Precip. Amount Definition
mm

Wind Dir Definition
10's deg

Wind Spd Definition
km/h
Visibility Definition
km
Stn Press Definition
kPa
Hmdx Definition


Wind Chill Definition


Weather Definition


00:00 10.8 10.2 96 0.0 LegendMM 4 16.1 96.97     LegendNANA
01:00 10.9 10.0 94 0.0 23 11 16.1 96.98     LegendNANA
02:00 9.7 8.9 95 0.0   0 16.1 96.97     LegendNANA
03:00 9.1 8.7 97 0.0 LegendMM 4 16.1 96.99     LegendNANA
04:00 9.5 9.4 99 0.0 21 5 16.1 97.00     LegendNANA
05:00 7.6 7.5 99 0.0 26 8 1.6 97.03     Fog
06:00 9.1 9.0 99 0.0 20 8 16.1 97.03     LegendNANA
07:00 11.8 11.0 95 0.0   0 16.1 97.04     LegendNANA
08:00 14.1 12.3 89 0.0   0 16.1 97.07     LegendNANA
09:00 19.3 13.6 69 0.0 19 5 16.1 97.06     LegendNANA
10:00 20.8 12.8 60 0.0 18 11 16.1 97.04     LegendNANA
11:00 22.5 12.7 53 0.0 18 9 16.1 97.02 25   LegendNANA
12:00 23.4 12.8 51 0.0 17 11 16.1 96.99 26   LegendNANA
13:00 24.3 12.8 48 0.0 21 13 16.1 96.97 27   LegendNANA
14:00 24.4 11.7 44 0.0 21 9 16.1 96.95 27   LegendNANA
15:00 18.9 16.1 84 12.4 LegendMM 5 16.1 96.99     Rain
16:00 21.0 14.8 67 0.0   0 16.1 96.97 25   LegendNANA
17:00 21.5 14.7 65 0.0 14 4 16.1 96.96 25   LegendNANA
18:00 21.2 15.2 68 0.0 14 4 16.1 96.96 25   LegendNANA
19:00 20.3 14.5 69 0.0 13 5 16.1 96.96     LegendNANA
20:00 17.3 15.9 92 0.0 10 4 16.1 96.98     LegendNANA
21:00 16.7 13.2 80 0.0 16 9 16.1 97.01     LegendNANA
22:00 15.3 13.0 86 0.0 13 8 16.1 97.02     LegendNANA
23:00 15.0 12.4 84 0.0 11 5 16.1 97.03     LegendNANA

Notes on Data Quality.

Legend

  • E = Estimated
  • M = Missing
  • NA = Not Available*
  • [empty] = Indicates an unobserved value
Date modified: